Location: Newark
(57.7279°N, 5.6916°W)
Time: 17:55:56
(UTC+00:00)

N. Korean satellite - Pass Details

Date: 13 December 2019
Orbit: 454 x 507 km, 97.2° (Epoch: 25 January)

Event Time Altitude Azimuth Distance (km) Brightness Sun altitude
Rises 17:31:14 0° 178° (S) 2,600 10.5 -13.6°
Reaches altitude 10° 17:33:22 10° 184° (S) 1,716 9.7 -13.9°
Maximum altitude 17:36:58 48° 260° (W) 663 7.7 -14.3°
Drops below altitude 10° 17:40:33 10° 336° (NNW) 1,707 9.4 -14.8°
Sets 17:42:40 0° 343° (NNW) 2,586 10.2 -15.0°
